Printer-friendly version

IAU Minor Planet Center

Minor Planet Center

C/2007 W1 (Boattini)

Orbital Elements

The following orbital elements are taken from MPC 63599:
C/2007 W1 (Boattini)
Epoch 2008 June 23.0 TT = JDT 2454640.5
T 2008 June 24.8848 TT                                  MPC
q   0.849681             (2000.0)            P               Q
z  -0.000031       Peri.  306.5513      +0.1972023      +0.9775754
                   Node   334.5222      -0.8356367      +0.1282070
e   1.000027       Incl.    9.8889      -0.5126623      +0.1670606
From 1102 observations 2007 Nov. 20-2008 Aug. 18, mean residual 0".8.
     Nongravitational parameters A1 = +3.85, A2 = -0.9414.
Elements are also available for the current standard epoch:
C/2007 W1 (Boattini)
Epoch 2009 June 18.0 TT = JDT 2455000.5
T 2008 June 24.8631 TT                                  MPC
q   0.849927             (2000.0)            P               Q
z  +0.000040       Peri.  306.5560      +0.1971683      +0.9775809
                   Node   334.5155      -0.8356477      +0.1281703
e   0.999966       Incl.    9.8889      -0.5126574      +0.1670566
An explanation of the orbital elements is available.

These orbital elements are also available in forms suitable for loading into a number of popular planetarium-type software programs.


Ephemeris

The following ephemeris is at intervals of five days. A daily ephemeris covering the same time interval is also available.

Personalized ephemerides for this (and other) objects may be generated using the Minor Planet & Comet Ephemeris Service.

Recent magnitude estimates for this comet (as reported to the ICQ) may be available.

Date    TT    R. A. (2000) Decl.     Delta      r     Elong.  Phase   m1    m2

WARNING!

This comet gets close to the sun during the period covered in the ephemeris below. Observers are warned to be wary of observing comets near the sun. NEVER point any kind of optical instrument at the sun--instant blindness will be the probable result.

2009 06 08 03 23.66 +26 54.6 5.656 4.740 23.2 4.8 20.0 2009 06 13 03 27.84 +27 13.3 5.675 4.791 26.8 5.5 20.1 2009 06 18 03 31.88 +27 31.5 5.689 4.841 30.4 6.1 20.1 2009 06 23 03 35.76 +27 49.2 5.698 4.891 34.2 6.7 20.2 2009 06 28 03 39.47 +28 06.4 5.703 4.941 38.0 7.3 20.2 2009 07 03 03 42.99 +28 23.2 5.702 4.991 41.8 7.8 20.3 2009 07 08 03 46.32 +28 39.4 5.697 5.040 45.7 8.3 20.3 2009 07 13 03 49.45 +28 55.2 5.688 5.089 49.7 8.8 20.3 2009 07 18 03 52.35 +29 10.5 5.674 5.139 53.7 9.2 20.4 2009 07 23 03 55.02 +29 25.3 5.657 5.188 57.8 9.5 20.4 2009 07 28 03 57.44 +29 39.7 5.636 5.236 62.0 9.9 20.4 2009 08 02 03 59.60 +29 53.5 5.613 5.285 66.2 10.1 20.5 2009 08 07 04 01.48 +30 06.8 5.586 5.333 70.5 10.3 20.5 2009 08 12 04 03.06 +30 19.5 5.557 5.381 74.8 10.5 20.5 2009 08 17 04 04.35 +30 31.7 5.527 5.429 79.2 10.6 20.6 2009 08 22 04 05.32 +30 43.3 5.494 5.477 83.7 10.6 20.6 2009 08 27 04 05.95 +30 54.2 5.461 5.525 88.3 10.5 20.6 2009 09 01 04 06.25 +31 04.3 5.428 5.572 93.0 10.4 20.6 2009 09 06 04 06.21 +31 13.7 5.395 5.620 97.7 10.2 20.7 2009 09 11 04 05.81 +31 22.2 5.362 5.667 102.6 10.0 20.7 2009 09 16 04 05.06 +31 29.7 5.331 5.714 107.5 9.7 20.7 2009 09 21 04 03.96 +31 36.1 5.302 5.761 112.5 9.3 20.7 2009 09 26 04 02.51 +31 41.4 5.276 5.808 117.5 8.8 20.8 2009 10 01 04 00.73 +31 45.3 5.253 5.854 122.6 8.3 20.8 2009 10 06 03 58.63 +31 47.9 5.234 5.901 127.8 7.7 20.8 2009 10 11 03 56.24 +31 49.1 5.220 5.947 133.1 7.0 20.8 2009 10 16 03 53.58 +31 48.6 5.211 5.993 138.3 6.3 20.9 2009 10 21 03 50.68 +31 46.6 5.208 6.039 143.6 5.6 20.9 2009 10 26 03 47.59 +31 42.9 5.212 6.085 148.9 4.8 20.9 2009 10 31 03 44.34 +31 37.6 5.222 6.130 154.0 4.1 21.0 2009 11 05 03 40.98 +31 30.6 5.240 6.176 159.0 3.3 21.0 2009 11 10 03 37.57 +31 22.2 5.266 6.221 163.4 2.6 21.0 2009 11 15 03 34.14 +31 12.3 5.299 6.266 166.9 2.1 21.1 2009 11 20 03 30.76 +31 01.1 5.341 6.312 168.4 1.8 21.1 2009 11 25 03 27.46 +30 48.9 5.390 6.357 167.2 2.0 21.2 2009 11 30 03 24.29 +30 35.8 5.448 6.401 163.9 2.4 21.2 2009 12 05 03 21.30 +30 22.1 5.514 6.446 159.5 3.1 21.3 2009 12 10 03 18.52 +30 07.9 5.587 6.491 154.6 3.7 21.4 2009 12 15 03 15.97 +29 53.7 5.668 6.535 149.5 4.4 21.4 2009 12 20 03 13.68 +29 39.4 5.755 6.579 144.3 5.0 21.5 2009 12 25 03 11.68 +29 25.5 5.850 6.624 139.0 5.6 21.5 2009 12 30 03 09.97 +29 12.1 5.950 6.668 133.7 6.1 21.6 2010 01 04 03 08.57 +28 59.3 6.055 6.712 128.5 6.6 21.7 2010 01 09 03 07.46 +28 47.4 6.166 6.755 123.3 7.0 21.7 2010 01 14 03 06.67 +28 36.4 6.280 6.799 118.1 7.3 21.8 2010 01 19 03 06.17 +28 26.4 6.398 6.843 113.0 7.6 21.9 2010 01 24 03 05.97 +28 17.5 6.520 6.886 107.9 7.8 22.0 2010 01 29 03 06.05 +28 09.8 6.643 6.929 102.9 8.0 22.0 2010 02 03 03 06.41 +28 03.3 6.768 6.973 98.0 8.0 22.1 2010 02 08 03 07.02 +27 57.9 6.893 7.016 93.1 8.1 22.2 2010 02 13 03 07.89 +27 53.8 7.019 7.059 88.3 8.0 22.2 2010 02 18 03 08.98 +27 50.7 7.145 7.101 83.5 7.9 22.3 2010 02 23 03 10.29 +27 48.8 7.270 7.144 78.8 7.8 22.3 2010 02 28 03 11.81 +27 47.9 7.394 7.187 74.2 7.6 22.4 2010 03 05 03 13.51 +27 48.0 7.516 7.229 69.6 7.4 22.5 2010 03 10 03 15.38 +27 49.1 7.635 7.272 65.0 7.1 22.5 2010 03 15 03 17.41 +27 51.1 7.751 7.314 60.6 6.8 22.6 2010 03 20 03 19.58 +27 53.8 7.864 7.356 56.1 6.5 22.6 2010 03 25 03 21.88 +27 57.4 7.974 7.399 51.8 6.1 22.7 2010 03 30 03 24.30 +28 01.6 8.079 7.441 47.5 5.7 22.8 2010 04 04 03 26.81 +28 06.5 8.180 7.482 43.2 5.2 22.8 2010 04 09 03 29.42 +28 11.9 8.276 7.524 39.0 4.8 22.9 2010 04 14 03 32.10 +28 17.8 8.368 7.566 34.8 4.3 22.9 2010 04 19 03 34.85 +28 24.2 8.454 7.608 30.7 3.9 22.9 2010 04 24 03 37.64 +28 31.0 8.534 7.649 26.7 3.4 23.0 2010 04 29 03 40.48 +28 38.1 8.609 7.690 22.7 2.9 23.0 2010 05 04 03 43.35 +28 45.6 8.678 7.732 18.9 2.4 23.1 2010 05 09 03 46.23 +28 53.2 8.742 7.773 15.3 2.0 23.1 2010 05 14 03 49.12 +29 01.1 8.799 7.814 12.2 1.6 23.2 2010 05 19 03 52.01 +29 09.2 8.850 7.855 9.8 1.2 23.2 2010 05 24 03 54.88 +29 17.4 8.895 7.896 8.8 1.1 23.2 2010 05 29 03 57.72 +29 25.7 8.934 7.937 9.6 1.2 23.3 2010 06 03 04 00.53 +29 34.1 8.967 7.978 12.0 1.5 23.3 2010 06 08 04 03.30 +29 42.6 8.994 8.018 15.1 1.9 23.3 2010 06 13 04 06.00 +29 51.1 9.014 8.059 18.7 2.3 23.3 2010 06 18 04 08.64 +29 59.6 9.029 8.099 22.4 2.7 23.4 2010 06 23 04 11.20 +30 08.1 9.038 8.140 26.3 3.2 23.4 2010 06 28 04 13.67 +30 16.6 9.041 8.180 30.3 3.6 23.4 2010 07 03 04 16.05 +30 25.0 9.039 8.220 34.4 4.0 23.4 2010 07 08 04 18.31 +30 33.3 9.032 8.260 38.5 4.4 23.4 2010 07 13 04 20.46 +30 41.6 9.019 8.300 42.7 4.8 23.5

Back to Observable Comets


Valid HTML 4.01!